DW0156 Weather Reports


time (UTC)temp
C
wind
direction
speed
KPH
gust
KPH
rain 1hr
cm
rain 24hr
cm
rain mn
cm
humidity
%
barometer
mb
20260902093938 13 263 3.2 9.7 0.00 0.00 0.00 65 1015.3
20260902092759 13 263 1.6 11.3 0.00 0.00 0.00 65 1015.0
20260902092250 13 263 1.6 12.9 0.00 0.00 0.00 66 1015.0
20260902091731 13 263 3.2 12.9 0.00 0.00 0.00 65 1015.0
20260902091236 13 263 3.2 16.1 0.00 0.00 0.00 64 1015.1
20260902090731 13 263 3.2 16.1 0.00 0.00 0.00 65 1015.1
20260902090237 13 263 4.8 16.1 0.00 0.00 0.00 65 1015.1
20260902085741 13 263 4.8 16.1 0.00 0.00 0.00 66 1014.9
20260902084620 13 263 4.8 14.5 0.00 0.00 0.00 67 1014.9
20260902082844 13 263 4.8 16.1 0.00 0.00 0.00 66 1014.8
20260902082348 13 263 4.8 16.1 0.00 0.00 0.00 66 1014.8
20260902081849 13 263 4.8 16.1 0.00 0.00 0.00 65 1014.8
20260902080105 14 263 4.8 16.1 0.00 0.00 0.00 66 1014.6
20260902075550 14 263 6.4 17.7 0.00 0.00 0.00 66 1014.7
20260902075054 14 263 6.4 17.7 0.00 0.00 0.00 65 1014.7
20260902074549 14 263 8.0 20.9 0.00 0.00 0.00 65 1014.7
20260902073420 14 263 6.4 20.9 0.00 0.00 0.00 64 1014.6
20260902072919 14 263 6.4 20.9 0.00 0.00 0.00 65 1014.6
20260902071736 14 263 3.2 14.5 0.00 0.00 0.00 65 1014.6
20260902071238 14 263 4.8 14.5 0.00 0.00 0.00 65 1014.8
20260902070720 14 263 3.2 14.5 0.00 0.00 0.00 65 1014.8
20260902070219 15 263 4.8 14.5 0.00 0.00 0.00 64 1014.8
20260902065722 15 263 4.8 14.5 0.00 0.00 0.00 63 1014.7
20260902065211 15 263 4.8 14.5 0.00 0.00 0.00 64 1014.7
20260902064656 15 263 3.2 14.5 0.00 0.03 0.00 63 1014.7
20260902064142 15 263 3.2 12.9 0.00 0.05 0.00 63 1014.8
20260902063034 15 263 3.2 14.5 0.00 0.08 0.00 62 1014.8
20260902062524 15 263 3.2 14.5 0.00 0.10 0.00 62 1014.8
20260902062006 15 263 4.8 14.5 0.00 0.13 0.00 61 1014.8
20260902061451 15 263 3.2 11.3 0.00 0.15 0.00 61 1014.8
20260902055832 15 263 3.2 12.9 0.00 0.28 0.00 60 1014.9
20260902055314 15 263 4.8 12.9 0.00 0.28 0.00 61 1014.9
20260902054755 15 263 4.8 12.9 0.00 0.28 0.00 61 1014.9
20260902054305 15 263 4.8 11.3 0.00 0.28 0.00 62 1014.9
20260902053813 15 263 4.8 11.3 0.00 0.28 0.00 61 1014.9
20260902053318 15 263 3.2 9.7 0.00 0.28 0.00 61 1014.9
20260902052816 15 263 4.8 16.1 0.00 0.28 0.00 60 1014.9
20260902052309 15 263 4.8 16.1 0.00 0.28 0.00 60 1014.9
20260902051812 15 263 6.4 16.1 0.00 0.28 0.00 60 1014.9
20260902051304 15 263 6.4 16.1 0.00 0.28 0.00 60 1014.9
20260902050758 15 263 4.8 14.5 0.00 0.28 0.00 59 1014.9
20260902050237 15 263 4.8 9.7 0.00 0.28 0.00 59 1014.9
20260902045731 15 263 4.8 16.1 0.00 0.28 0.00 61 1015.0
20260902045240 15 263 4.8 16.1 0.00 0.28 0.00 62 1015.0
20260902044056 15 263 4.8 22.5 0.00 0.28 0.00 62 1015.2
20260902043550 15 263 8.0 22.5 0.00 0.28 0.00 61 1015.2
20260902043036 15 263 6.4 22.5 0.00 0.28 0.00 61 1015.2
20260902041913 15 263 6.4 16.1 0.00 0.28 0.00 61 1015.4
20260902041412 15 263 6.4 14.5 0.00 0.28 0.00 62 1015.4
20260902040903 15 263 6.4 20.9 0.00 0.28 0.00 61 1015.5
20260902040344 16 263 8.0 20.9 0.00 0.28 0.00 62 1015.5
20260902035854 15 263 6.4 20.9 0.00 0.28 0.00 62 1015.5
20260902035401 15 263 4.8 20.9 0.00 0.28 0.00 63 1015.5
20260902034906 15 263 3.2 12.9 0.00 0.28 0.00 63 1015.5
20260902034356 15 263 4.8 17.7 0.00 0.28 0.00 63 1015.8
20260902033851 15 263 6.4 17.7 0.00 0.28 0.00 65 1015.8
20260902033400 15 263 6.4 17.7 0.00 0.28 0.00 66 1015.8
20260902032900 14 263 6.4 17.7 0.00 0.28 0.00 65 1015.9
20260902032349 14 263 6.4 16.1 0.00 0.28 0.00 65 1015.9
20260902031227 14 263 6.4 16.1 0.00 0.28 0.00 66 1016.0
20260902030732 14 263 8.0 16.1 0.00 0.28 0.00 66 1016.0
20260902030228 14 263 6.4 16.1 0.00 0.28 0.00 66 1016.0
20260902025721 14 263 4.8 17.7 0.00 0.28 0.00 66 1016.2
20260902025228 14 263 6.4 17.7 0.00 0.28 0.00 66 1016.2
20260902024731 14 263 6.4 27.4 0.00 0.28 0.00 66 1016.2
20260902024223 14 263 4.8 27.4 0.00 0.28 0.00 68 1016.4
20260902023723 13 263 8.0 27.4 0.00 0.28 0.00 69 1016.4
20260902022552 14 263 9.7 19.3 0.00 0.28 0.00 70 1016.5
20260902022057 14 263 11.3 19.3 0.00 0.28 0.00 71 1016.5
20260902020942 14 263 8.0 20.9 0.00 0.28 0.00 74 1016.6
20260902020442 14 263 8.0 20.9 0.00 0.28 0.00 75 1016.6
20260902015936 14 263 9.7 20.9 0.00 0.28 0.00 74 1016.6
20260902015445 14 263 8.0 17.7 0.00 0.28 0.00 73 1016.8
20260902014934 15 263 6.4 17.7 0.00 0.28 0.00 71 1016.8
20260902013740 14 263 6.4 16.1 0.00 0.28 0.00 66 1016.9
20260902012636 14 263 4.8 12.9 0.00 0.28 0.00 67 1017.0
20260902012123 14 263 4.8 16.1 0.00 0.28 0.00 68 1017.0
20260902011624 14 263 6.4 16.1 0.00 0.28 0.00 70 1017.0
20260902011106 14 263 6.4 19.3 0.00 0.28 0.00 70 1017.0
20260902010608 14 263 6.4 19.3 0.00 0.28 0.00 70 1017.0
20260902010057 14 263 8.0 19.3 0.00 0.28 0.00 70 1017.0
20260902005544 14 263 6.4 16.1 0.00 0.28 0.00 72 1017.3
20260902005035 14 263 6.4 16.1 0.00 0.28 0.00 73 1017.3
20260902004537 13 263 6.4 14.5 0.00 0.28 0.00 73 1017.3
20260902004038 14 263 6.4 14.5 0.00 0.28 0.00 73 1017.5
20260902003530 14 263 6.4 14.5 0.00 0.28 0.00 72 1017.5
20260902003038 13 263 6.4 14.5 0.00 0.28 0.00 72 1017.5
20260902002526 13 263 4.8 17.7 0.00 0.28 0.00 73 1017.5
20260902002026 13 263 4.8 17.7 0.00 0.28 0.00 73 1017.5
20260902001535 13 263 6.4 17.7 0.00 0.28 0.00 75 1017.5
20260902001041 13 263 6.4 17.7 0.00 0.28 0.00 76 1017.5
20260901235922 13 263 6.4 16.1 0.00 0.28 0.00 78 1017.5
20260901235413 13 263 6.4 16.1 0.00 0.28 0.00 78 1017.5
20260901234912 13 263 4.8 16.1 0.00 0.28 0.00 79 1017.5
20260901234410 13 263 4.8 14.5 0.00 0.28 0.00 80 1017.5
20260901233909 13 263 6.4 14.5 0.00 0.28 0.00 81 1017.5
20260901233405 13 263 4.8 12.9 0.00 0.28 0.00 81 1017.5
20260901232902 13 263 3.2 9.7 0.00 0.28 0.00 83 1017.5
20260901232353 13 263 3.2 9.7 0.00 0.28 0.00 83 1017.5
20260901231840 13 263 4.8 12.9 0.00 0.28 0.00 84 1017.5
20260901231328 13 263 3.2 12.9 0.00 0.28 0.00 85 1017.6
20260901230819 13 263 4.8 12.9 0.00 0.28 0.00 85 1017.6
20260901230315 13 263 3.2 12.9 0.00 0.28 0.00 86 1017.6
20260901225814 13 263 3.2 9.7 0.00 0.28 0.00 86 1017.6
20260901225308 13 263 3.2 12.9 0.00 0.28 0.00 87 1017.6
20260901224812 13 263 3.2 12.9 0.00 0.28 0.00 87 1017.6
20260901224254 13 263 4.8 12.9 0.00 0.28 0.00 87 1017.5
20260901223801 13 263 4.8 12.9 0.00 0.28 0.00 88 1017.5
20260901223305 13 263 3.2 9.7 0.00 0.28 0.00 88 1017.5
20260901222752 12 263 1.6 8.0 0.00 0.28 0.00 89 1017.4
20260901222248 12 263 0.0 4.8 0.00 0.28 0.00 89 1017.4
20260901220518 12 263 0.0 0.0 0.00 0.28 0.00 89 1017.2
20260901220009 12 263 0.0 1.6 0.00 0.28 0.00 90 1017.2
20260901215519 12 263 0.0 4.8 0.00 0.28 0.00 90 1017.0
20260901215006 12 263 0.0 6.4 0.00 0.28 0.00 90 1017.0
20260901214455 12 263 0.0 6.4 0.00 0.28 0.00 90 1017.0
20260901213954 12 263 0.0 14.5 0.00 0.28 0.00 90 1017.0
20260901213438 12 263 3.2 14.5 0.00 0.28 0.00 90 1017.0
20260901212923 12 263 4.8 14.5 0.00 0.28 0.00 90 1017.0
20260901212421 12 263 3.2 14.5 0.00 0.28 0.00 91 1016.9
20260901211308 12 263 0.0 6.4 0.00 0.28 0.00 91 1016.7
20260901210805 11 263 0.0 0.0 0.00 0.28 0.00 91 1016.7
20260901210245 11 263 0.0 6.4 0.00 0.28 0.00 91 1016.7
20260901205122 12 263 0.0 0.0 0.00 0.28 0.00 91 1016.5
20260901204609 12 263 0.0 0.0 0.00 0.28 0.00 91 1016.5
20260901204053 12 263 0.0 0.0 0.00 0.28 0.00 91 1016.4
20260901203547 12 263 0.0 0.0 0.00 0.28 0.00 91 1016.4
20260901203028 12 263 0.0 4.8 0.00 0.28 0.00 91 1016.4
20260901202510 12 263 1.6 4.8 0.00 0.28 0.00 91 1016.4
20260901202006 12 263 1.6 4.8 0.00 0.28 0.00 91 1016.4
20260901200900 12 263 0.0 0.0 0.00 0.28 0.00 91 1016.4
20260901200354 12 263 0.0 0.0 0.00 0.28 0.00 91 1016.4
20260901195858 12 263 0.0 0.0 0.00 0.28 0.00 91 1016.5
20260901195400 12 263 0.0 0.0 0.00 0.28 0.00 91 1016.5
20260901194858 12 263 0.0 0.0 0.00 0.28 0.00 91 1016.5
20260901194348 12 263 0.0 0.0 0.00 0.28 0.00 91 1016.5
20260901193838 12 263 0.0 0.0 0.00 0.28 0.00 91 1016.5
20260901193320 12 263 0.0 0.0 0.00 0.28 0.00 91 1016.5
20260901192130 12 263 0.0 0.0 0.00 0.28 0.00 91 1016.4
20260901191616 12 263 0.0 3.2 0.00 0.28 0.00 91 1016.4
20260901190447 12 263 0.0 0.0 0.00 0.28 0.00 91 1016.3
20260901185942 12 263 0.0 0.0 0.00 0.28 0.00 91 1016.3
20260901185438 12 263 0.0 0.0 0.00 0.28 0.00 91 1016.4
20260901184935 12 263 0.0 3.2 0.00 0.28 0.00 91 1016.4
20260901184416 12 263 0.0 0.0 0.00 0.28 0.00 91 1016.4
20260901183305 12 263 0.0 0.0 0.00 0.28 0.00 91 1016.2
20260901182137 12 263 0.0 0.0 0.00 0.28 0.00 91 1016.1
20260901181618 12 263 0.0 0.0 0.00 0.28 0.00 91 1016.1
20260901181107 12 263 0.0 0.0 0.00 0.28 0.00 91 1016.0
20260901175334 11 263 0.0 0.0 0.00 0.28 0.00 91 1016.0
20260901174820 11 263 0.0 0.0 0.00 0.28 0.00 91 1016.0
20260901174313 11 263 0.0 0.0 0.00 0.28 0.00 90 1016.1
20260901173816 11 263 0.0 0.0 0.00 0.28 0.00 90 1016.1
20260901172649 11 263 0.0 0.0 0.00 0.28 0.00 90 1016.3
20260901172157 11 263 0.0 0.0 0.00 0.28 0.00 90 1016.3
20260901171640 12 263 0.0 0.0 0.00 0.28 0.00 90 1016.3
20260901170506 12 263 0.0 0.0 0.00 0.28 0.00 90 1016.4
20260901165947 12 263 0.0 0.0 0.00 0.28 0.00 90 1016.4
20260901165439 12 263 0.0 0.0 0.00 0.28 0.00 90 1016.4
20260901164946 12 263 0.0 0.0 0.00 0.28 0.00 90 1016.4
20260901164432 12 263 0.0 0.0 0.00 0.28 0.00 90 1016.4
20260901163938 12 263 0.0 0.0 0.00 0.28 0.00 90 1016.6
20260901163430 12 263 0.0 0.0 0.00 0.28 0.00 90 1016.6
20260901161658 12 263 0.0 0.0 0.00 0.28 0.00 90 1016.6
20260901160541 12 263 0.0 0.0 0.00 0.28 0.00 89 1016.5
20260901160038 12 263 0.0 0.0 0.00 0.28 0.00 89 1016.5
20260901155537 13 263 0.0 0.0 0.00 0.28 0.00 90 1016.4
20260901153808 13 263 0.0 0.0 0.00 0.28 0.00 89 1016.4
20260901153249 13 263 0.0 0.0 0.00 0.28 0.00 89 1016.4
20260901152753 13 263 0.0 0.0 0.00 0.28 0.00 89 1016.4
20260901152236 13 263 0.0 0.0 0.00 0.28 0.00 89 1016.4
20260901151742 13 263 0.0 0.0 0.00 0.28 0.00 89 1016.4
20260901151238 13 263 0.0 0.0 0.00 0.28 0.00 89 1016.3
20260901150747 13 263 0.0 1.6 0.00 0.28 0.00 89 1016.3
20260901150244 13 263 0.0 0.0 0.00 0.28 0.00 89 1016.3
20260901145729 13 263 0.0 0.0 0.00 0.28 0.00 88 1016.3
20260901145225 13 263 0.0 0.0 0.00 0.28 0.00 88 1016.3
20260901144717 13 263 0.0 0.0 0.00 0.28 0.00 88 1016.3
20260901143544 14 263 0.0 0.0 0.00 0.28 0.00 88 1016.3
20260901143048 14 263 0.0 0.0 0.00 0.28 0.00 88 1016.3
20260901142533 14 263 0.0 1.6 0.00 0.28 0.28 88 1016.4
20260901142042 14 263 0.0 0.0 0.00 0.28 0.28 88 1016.4
20260901141551 14 263 0.0 0.0 0.00 0.28 0.28 88 1016.4
20260901141053 14 263 0.0 0.0 0.00 0.28 0.28 88 1016.4
20260901140600 15 263 0.0 0.0 0.00 0.28 0.28 88 1016.4
20260901140108 15 263 0.0 0.0 0.00 0.28 0.28 88 1016.4
20260901135605 15 263 0.0 0.0 0.00 0.28 0.28 88 1016.4
20260901134416 15 263 0.0 1.6 0.00 0.28 0.28 88 1016.4
20260901133907 15 263 0.0 0.0 0.00 0.28 0.28 88 1016.5
20260901133351 15 263 0.0 3.2 0.00 0.28 0.28 88 1016.5
20260901132844 15 263 1.6 0.0 0.00 0.28 0.28 88 1016.6
20260901132335 15 263 1.6 6.4 0.00 0.28 0.28 88 1016.6
20260901131816 15 263 1.6 6.4 0.00 0.28 0.28 88 1016.6
20260901131312 15 263 1.6 6.4 0.00 0.28 0.28 88 1016.4
20260901130153 15 263 0.0 4.8 0.00 0.28 0.28 87 1016.4
20260901125649 15 263 0.0 0.0 0.00 0.28 0.28 87 1016.6
20260901125151 15 263 0.0 0.0 0.00 0.28 0.28 87 1016.6
20260901124029 15 263 0.0 0.0 0.00 0.28 0.28 86 1016.7
20260901123533 15 263 0.0 0.0 0.00 0.28 0.28 86 1016.7
20260901123031 15 263 0.0 0.0 0.00 0.28 0.28 86 1016.7
20260901122540 15 263 0.0 0.0 0.00 0.28 0.28 86 1016.8
20260901122040 15 263 0.0 0.0 0.00 0.28 0.28 86 1016.8
20260901121538 15 263 0.0 0.0 0.00 0.28 0.28 86 1016.8
20260901120411 15 263 0.0 0.0 0.00 0.28 0.28 86 1016.5
20260901115249 15 263 0.0 0.0 0.00 0.28 0.28 86 1016.5
20260901114751 15 263 0.0 0.0 0.00 0.28 0.28 86 1016.5
20260901113022 15 263 0.0 0.0 0.00 0.28 0.28 85 1016.4
20260901112522 15 263 0.0 0.0 0.00 0.28 0.28 85 1016.4
20260901112026 15 263 0.0 0.0 0.00 0.28 0.28 85 1016.4
20260901111525 15 263 0.0 0.0 0.00 0.28 0.28 85 1016.4
20260901111025 15 263 0.0 0.0 0.00 0.28 0.28 85 1016.3
20260901110526 15 263 0.0 0.0 0.00 0.28 0.28 85 1016.3
20260901104734 15 263 0.0 0.0 0.00 0.28 0.28 85 1016.2
20260901103556 15 263 1.6 8.0 0.00 0.28 0.28 86 1016.3
20260901102444 15 263 1.6 8.0 0.00 0.28 0.28 86 1016.1
20260901101937 15 263 3.2 9.7 0.00 0.28 0.28 87 1016.1
20260901101418 15 263 3.2 9.7 0.00 0.28 0.28 87 1016.1
20260901100903 15 263 3.2 9.7 0.00 0.28 0.28 87 1015.9
20260901100357 15 263 0.0 9.7 0.00 0.28 0.28 88 1015.9
20260901095844 15 263 0.0 4.8 0.00 0.28 0.28 88 1015.9
20260901095349 15 263 0.0 0.0 0.00 0.28 0.28 88 1015.9
20260901094832 15 263 0.0 3.2 0.00 0.28 0.28 88 1015.9
20260901094322 15 263 0.0 0.0 0.00 0.28 0.28 88 1015.4